EW6341 Weather Reports


time (UTC)temp
C
wind
direction
speed
KPH
gust
KPH
rain 1hr
cm
rain 24hr
cm
rain mn
cm
humidity
%
barometer
mb
20260507122857 28 101 0.0 0.0 0.00 0.00 0.00 1 1011.3
20260507122358 28 104 0.0 0.0 0.00 0.00 0.00 1 1011.2
20260507121900 28 103 0.0 0.0 0.00 0.00 0.00 1 1011.2
20260507121356 -17 0.0 0.0 0.00 0.00 0.00 1011.0
20260507121038 -17 0.0 0.0 0.00 0.00 0.00 1011.0
20260507120304 -17 0.0 0.0 0.00 0.00 0.00 1010.9
20260507115802 -17 0.0 0.0 0.00 0.00 0.00 1010.9
20260507115211 -17 0.0 0.0 0.00 0.00 0.00 1010.8
20260507114935 -17 0.0 0.0 0.00 0.00 0.00 1010.7
20260507114109 -17 0.0 0.0 0.00 0.00 0.00 1010.6
20260507113834 -17 0.0 0.0 0.00 0.00 0.00 1010.5
20260507113010 -17 0.0 0.0 0.00 0.00 0.00 1010.3
20260507112511 27 0.0 0.0 0.00 0.00 0.00 1 1010.3
20260507112006 27 115 0.0 0.0 0.00 0.00 0.00 1 1010.3
20260507111414 27 115 0.0 0.0 0.00 0.00 0.00 1 1010.3
20260507110814 27 115 0.0 0.0 0.00 0.00 0.00 1 1010.2
20260507110312 27 115 0.0 0.0 0.00 0.00 0.00 1 1010.2
20260507105806 27 115 0.0 0.0 0.00 0.00 0.00 1 1010.2
20260507105537 27 115 0.0 0.0 0.00 0.00 0.00 1 1010.2
20260507104707 27 115 0.0 0.0 0.00 0.00 0.00 1 1010.1
20260507104443 27 115 0.0 0.0 0.00 0.00 0.00 1 1010.1
20260507103614 27 115 0.0 0.0 0.00 0.00 0.00 1 1010.1
20260507103112 27 115 0.0 0.0 0.00 0.00 0.00 1 1010.2
20260507102600 27 115 0.0 0.0 0.00 0.00 0.00 1 1010.1
20260507102236 27 115 0.0 0.0 0.00 0.00 0.00 1 1010.1
20260507101504 27 115 0.0 0.0 0.00 0.00 0.00 1 1010.1
20260507101005 27 115 0.0 0.0 0.00 0.00 0.00 1 1010.2
20260507100458 27 115 0.0 0.0 0.00 0.00 0.00 1 1010.2
20260507095907 27 115 0.0 0.0 0.00 0.00 0.00 1 1010.1
20260507095408 27 115 0.0 0.0 0.00 0.00 0.00 1 1010.1
20260507094910 27 115 0.0 0.0 0.00 0.00 0.00 1 1010.2
20260507094406 27 115 0.0 0.0 0.00 0.00 0.00 1 1010.1
20260507093902 27 115 0.0 0.0 0.00 0.00 0.00 1 1010.1
20260507093401 27 115 0.0 0.0 0.00 0.00 0.00 1 1010.1
20260507092809 27 115 0.0 0.0 0.00 0.00 0.00 1 1010.0
20260507092308 27 115 0.0 0.0 0.00 0.00 0.00 1 1010.0
20260507092024 27 92 0.0 0.0 0.00 0.00 0.00 1 1010.0
20260507091308 28 96 0.0 0.0 0.00 0.00 0.00 1 1010.1
20260507091253 28 98 0.0 0.0 0.00 0.00 0.00 1 1010.0
20260507090253 28 94 0.0 0.0 0.00 0.00 0.00 1 1010.1
20260507085753 28 99 0.0 0.0 0.00 0.00 0.00 1 1010.2
20260507085522 28 101 0.0 0.0 0.00 0.00 0.00 1 1010.3
20260507084749 28 108 0.0 0.0 0.00 0.00 0.00 1 1010.2
20260507084248 28 143 0.0 0.0 0.00 0.00 0.00 1 1010.3
20260507083749 28 103 0.0 0.0 0.00 0.00 0.00 1 1010.4
20260507083250 28 71 0.0 0.0 0.00 0.00 0.00 1 1010.4
20260507083021 28 77 0.0 0.0 0.00 0.00 0.00 1 1010.4
20260507082249 28 104 0.0 0.0 0.00 0.00 0.00 1 1010.4
20260507081749 28 72 0.0 0.0 0.00 0.00 0.00 1 1010.5
20260507081251 28 76 0.0 0.0 0.00 0.00 0.00 1 1010.5
20260507081246 28 101 0.0 0.0 0.00 0.00 0.00 1 1010.6
20260507080238 28 103 0.0 0.0 0.00 0.00 0.00 1 1010.7
20260507075730 28 103 0.0 0.0 0.00 0.00 0.00 1 1010.7
20260507075225 28 63 0.0 0.0 0.00 0.00 0.00 1 1010.7
20260507074730 28 110 0.0 0.0 0.00 0.00 0.00 1 1010.8
20260507074719 28 103 0.0 0.0 0.00 0.00 0.00 1 1010.7
20260507073939 28 94 0.0 0.0 0.00 0.00 0.00 1 1010.8
20260507073201 28 107 0.0 0.0 0.00 0.00 0.00 1 1010.8
20260507072654 28 101 0.0 0.0 0.00 0.00 0.00 1 1010.8
20260507072149 28 104 0.0 0.0 0.00 0.00 0.00 1 1010.9
20260507071643 28 106 0.0 0.0 0.00 0.00 0.00 1 1010.9
20260507071138 28 101 0.0 0.0 0.00 0.00 0.00 1 1010.9
20260507070630 28 85 0.0 0.0 0.00 0.00 0.00 1 1011.0
20260507070125 28 108 0.0 0.0 0.00 0.00 0.00 1 1011.0
20260507065619 28 122 0.0 0.0 0.00 0.00 0.00 1 1011.1
20260507065344 28 98 0.0 0.0 0.00 0.00 0.00 1 1011.2
20260507064608 28 105 0.0 0.0 0.00 0.00 0.00 1 1011.3
20260507064102 28 91 0.0 0.0 0.00 0.00 0.00 1 1011.3
20260507063555 28 106 0.0 0.0 0.00 0.00 0.00 1 1011.4
20260507063049 28 69 0.0 0.0 0.00 0.00 0.00 1 1011.4
20260507062544 28 101 0.0 0.0 0.00 0.00 0.00 1 1011.6
20260507062038 28 95 0.0 0.0 0.00 0.00 0.00 1 1011.7
20260507061532 28 128 0.0 0.0 0.00 0.00 0.00 1 1011.7
20260507061033 28 113 0.0 0.0 0.00 0.00 0.00 1 1011.8
20260507060533 28 87 0.0 0.0 0.00 0.00 0.00 1 1012.0
20260507060033 28 113 0.0 0.0 0.00 0.00 0.00 1 1012.0
20260507055803 28 110 0.0 0.0 0.00 0.00 0.00 1 1012.1
20260507055029 28 97 0.0 0.0 0.00 0.00 0.00 1 1012.2
20260507054529 28 89 0.0 0.0 0.00 0.00 0.00 1 1012.3
20260507054030 28 106 0.0 0.0 0.00 0.00 0.00 1 1012.2
20260507053801 28 110 0.0 0.0 0.00 0.00 0.00 1 1012.3
20260507053027 28 104 0.0 0.0 0.00 0.00 0.00 1 1012.3
20260507052527 28 84 0.0 0.0 0.00 0.00 0.00 1 1012.3
20260507052027 28 102 0.0 0.0 0.00 0.00 0.00 1 1012.5
20260507051526 28 104 0.0 0.0 0.00 0.00 0.00 1 1012.5
20260507051025 28 97 0.0 0.0 0.00 0.00 0.00 1 1012.5
20260507050525 28 103 0.0 0.0 0.00 0.00 0.00 1 1012.6
20260507050027 28 97 0.0 0.0 0.00 0.00 0.00 1 1012.7
20260507045527 28 96 0.0 0.0 0.00 0.00 0.00 1 1012.7
20260507045028 28 94 0.0 0.0 0.00 0.00 0.00 1 1012.6
20260507045022 28 130 0.0 0.0 0.00 0.00 0.00 1 1012.6
20260507044014 28 98 0.0 0.0 0.00 0.00 0.00 1 1012.7
20260507043509 28 108 0.0 0.0 0.00 0.00 0.00 1 1012.7
20260507043002 28 104 0.0 0.0 0.00 0.00 0.00 1 1012.7
20260507042457 28 94 0.0 0.0 0.00 0.00 0.00 1 1012.8
20260507041950 28 94 0.0 0.0 0.00 0.00 0.00 1 1012.9
20260507041444 28 109 0.0 0.0 0.00 0.00 0.00 1 1012.8
20260507040938 28 108 0.0 0.0 0.00 0.00 0.00 1 1012.8
20260507040432 28 107 0.0 0.0 0.00 0.00 0.00 1 1012.7
20260507035925 28 99 0.0 0.0 0.00 0.00 0.00 1 1012.8
20260507035419 28 102 0.0 0.0 0.00 0.00 0.00 1 1012.9
20260507035147 28 83 0.0 0.0 0.00 0.00 0.00 1 1012.8
20260507034411 28 108 0.0 0.0 0.00 0.00 0.00 1 1012.8
20260507033912 28 90 0.0 0.0 0.00 0.00 0.00 1 1012.8
20260507033410 28 91 0.0 0.0 0.00 0.00 0.00 1 1012.8
20260507032912 28 103 0.0 0.0 0.00 0.00 0.00 1 1012.8
20260507032412 28 115 0.0 0.0 0.00 0.00 0.00 1 1012.8
20260507031910 28 95 0.0 0.0 0.00 0.00 0.00 1 1012.7
20260507031411 28 110 0.0 0.0 0.00 0.00 0.00 1 1012.7
20260507030911 28 103 0.0 0.0 0.00 0.00 0.00 1 1012.6
20260507030411 28 96 0.0 0.0 0.00 0.00 0.00 1 1012.6
20260507030406 28 108 0.0 0.0 0.00 0.00 0.00 1 1012.6
20260507030347 28 85 0.0 0.0 0.00 0.00 0.00 1 1012.6
20260507024907 28 103 0.0 0.0 0.00 0.00 0.00 1 1012.5
20260507024408 28 108 0.0 0.0 0.00 0.00 0.00 1 1012.5
20260507023908 28 99 0.0 0.0 0.00 0.00 0.00 1 1012.3
20260507023407 28 99 0.0 0.0 0.00 0.00 0.00 1 1012.3
20260507022907 28 98 0.0 0.0 0.00 0.00 0.00 1 1012.3
20260507022407 28 118 0.0 0.0 0.00 0.00 0.00 1 1012.3
20260507021907 28 83 0.0 0.0 0.00 0.00 0.00 1 1012.3
20260507021408 28 84 0.0 0.0 0.00 0.00 0.00 1 1012.3
20260507020914 28 100 0.0 0.0 0.00 0.00 0.00 1 1012.2
20260507020640 28 81 0.0 0.0 0.00 0.00 0.00 1 1012.2
20260507015907 28 96 0.0 0.0 0.00 0.00 0.00 1 1012.1
20260507015407 28 102 0.0 0.0 0.00 0.00 0.00 1 1012.2
20260507014907 28 86 0.0 0.0 0.00 0.00 0.00 1 1012.1
20260507014639 28 100 0.0 0.0 0.00 0.00 0.00 1 1012.0
20260507014138 28 79 0.0 0.0 0.00 0.00 0.00 1 1011.9
20260507013407 28 98 0.0 0.0 0.00 0.00 0.00 1 1011.8
20260507013139 28 83 0.0 0.0 0.00 0.00 0.00 1 1011.8
20260507012407 28 101 0.0 0.0 0.00 0.00 0.00 1 1011.7
20260507011907 28 97 0.0 0.0 0.00 0.00 0.00 1 1011.6
20260507011407 28 86 0.0 0.0 0.00 0.00 0.00 1 1011.6
20260507010907 28 98 0.0 0.0 0.00 0.00 0.00 1 1011.6
20260507010402 28 113 0.0 0.0 0.00 0.00 0.00 1 1011.5
20260507005901 28 85 0.0 0.0 0.00 0.00 0.00 1 1011.5
20260507005400 28 79 0.0 0.0 0.00 0.00 0.00 1 1011.5
20260507004909 28 117 0.0 0.0 0.00 0.00 0.00 1 1011.4
20260507004359 28 94 0.0 0.0 0.00 0.00 0.00 1 1011.4
20260507003858 28 88 0.0 0.0 0.00 0.00 0.00 1 1011.4
20260507003358 28 65 0.0 0.0 0.00 0.00 0.00 1 1011.4
20260507002857 28 98 0.0 0.0 0.00 0.00 0.00 1 1011.3
20260507002358 29 91 0.0 0.0 0.00 0.00 0.00 1 1011.3
20260507001858 29 86 0.0 0.0 0.00 0.00 0.00 1 1011.3
20260507001356 29 99 0.0 0.0 0.00 0.00 0.00 1 1011.3
20260507000848 29 100 0.0 0.0 0.00 0.00 0.00 1 1011.2
20260507000343 29 68 0.0 0.0 0.00 0.00 0.00 1 1011.2
20260506235837 29 96 0.0 0.0 0.00 0.00 0.00 1 1011.1
20260506235331 29 94 0.0 0.0 0.00 0.00 0.00 1 1011.1
20260506235058 29 101 0.0 0.0 0.00 0.00 0.00 1 1011.0
20260506234319 29 112 0.0 0.0 0.00 0.00 0.00 1 1011.0
20260506234042 29 49 0.0 0.0 0.00 0.00 0.00 1 1011.0
20260506233307 29 97 0.0 0.0 0.00 0.00 0.00 1 1011.0
20260506233034 29 94 0.0 0.0 0.00 0.00 0.00 1 1011.0
20260506232255 29 70 0.0 0.0 0.00 0.00 0.00 1 1010.9
20260506231749 29 103 0.0 0.0 0.00 0.00 0.00 1 1010.8
20260506231242 29 103 0.0 0.0 0.00 0.00 0.00 1 1010.9
20260506230737 29 76 0.0 0.0 0.00 0.00 0.00 1 1010.8
20260506230231 30 74 0.0 0.0 0.00 0.00 0.00 1 1010.8
20260506225725 30 98 0.0 0.0 0.00 0.00 0.00 1 1010.8
20260506225218 30 112 0.0 0.0 0.00 0.00 0.00 1 1010.8
20260506224714 30 108 0.0 0.0 0.00 0.00 0.00 1 1010.7
20260506224207 30 99 0.0 0.0 0.00 0.00 0.00 1 1010.8
20260506223933 30 105 0.0 0.0 0.00 0.00 0.00 1 1010.8
20260506223155 30 103 0.0 0.0 0.00 0.00 0.00 1 1010.8
20260506222648 30 98 0.0 0.0 0.00 0.00 0.00 1 1010.7
20260506222142 30 94 0.0 0.0 0.00 0.00 0.00 1 1010.7
20260506221637 30 72 0.0 0.0 0.00 0.00 0.00 1 1010.7
20260506221130 30 108 0.0 0.0 0.00 0.00 0.00 1 1010.7
20260506220625 30 108 0.0 0.0 0.00 0.00 0.00 1 1010.8
20260506220119 30 114 0.0 0.0 0.00 0.00 0.00 1 1010.8
20260506215611 30 101 0.0 0.0 0.00 0.00 0.00 1 1010.8
20260506215108 30 81 0.0 0.0 0.00 0.00 0.00 1 1010.7
20260506214601 30 129 0.0 0.0 0.00 0.00 0.00 1 1010.8
20260506214056 30 112 0.0 0.0 0.00 0.00 0.00 1 1010.7
20260506213549 30 67 0.0 0.0 0.00 0.00 0.00 1 1010.8
20260506213043 30 117 0.0 0.0 0.00 0.00 0.00 1 1010.8
20260506212537 30 108 0.0 0.0 0.00 0.00 0.00 1 1010.8
20260506212037 30 119 0.0 0.0 0.00 0.00 0.00 1 1010.9
20260506211525 30 128 0.0 0.0 0.00 0.00 0.00 1 1010.8
20260506211019 30 106 0.0 0.0 0.00 0.00 0.00 1 1010.9
20260506210512 30 96 0.0 0.0 0.00 0.00 0.00 1 1011.0
20260506210005 31 121 0.0 0.0 0.00 0.00 0.00 1 1011.0
20260506205459 31 118 0.0 0.0 0.00 0.00 0.00 1 1011.0
20260506204953 30 96 0.0 0.0 0.00 0.00 0.00 1 1011.1
20260506204447 30 91 0.0 0.0 0.00 0.00 0.00 1 1011.1
20260506203940 30 93 0.0 0.0 0.00 0.00 0.00 1 1011.1
20260506203436 30 90 0.0 0.0 0.00 0.00 0.00 1 1011.1
20260506202928 30 99 0.0 0.0 0.00 0.00 0.00 1 1011.1
20260506202422 31 108 0.0 0.0 0.00 0.00 0.00 1 1011.1
20260506201919 30 133 0.0 0.0 0.00 0.00 0.00 1 1011.1
20260506201912 30 107 0.0 0.0 0.00 0.00 0.00 1 1011.2
20260506200904 30 108 0.0 0.0 0.00 0.00 0.00 1 1011.3
20260506200404 30 115 0.0 0.0 0.00 0.00 0.00 1 1011.4
20260506195902 30 121 0.0 0.0 0.00 0.00 0.00 1 1011.5
20260506195400 31 126 0.0 0.0 0.00 0.00 0.00 1 1011.6
20260506194901 30 91 0.0 0.0 0.00 0.00 0.00 1 1011.6
20260506194400 30 132 0.0 0.0 0.00 0.00 0.00 1 1011.7
20260506193900 30 132 0.0 0.0 0.00 0.00 0.00 1 1011.8
20260506193418 31 115 0.0 0.0 0.00 0.00 0.00 1 1012.0
20260506193401 31 98 0.0 0.0 0.00 0.00 0.00 1 1011.9
20260506192630 31 104 0.0 0.0 0.00 0.00 0.00 1 1012.0
20260506191858 31 115 0.0 0.0 0.00 0.00 0.00 1 1012.1
20260506191358 31 107 0.0 0.0 0.00 0.00 0.00 1 1012.1
20260506190854 31 98 0.0 0.0 0.00 0.00 0.00 1 1012.3
20260506190354 31 111 0.0 0.0 0.00 0.00 0.00 1 1012.4
20260506185855 31 100 0.0 0.0 0.00 0.00 0.00 1 1012.5
20260506185354 31 110 0.0 0.0 0.00 0.00 0.00 1 1012.5
20260506184853 31 102 0.0 0.0 0.00 0.00 0.00 1 1012.5
20260506184355 31 123 0.0 0.0 0.00 0.00 0.00 1 1012.5
20260506183856 31 103 0.0 0.0 0.00 0.00 0.00 1 1012.6
20260506183351 31 92 0.0 0.0 0.00 0.00 0.00 1 1012.8
20260506182842 30 101 0.0 0.0 0.00 0.00 0.00 1 1012.8
20260506182342 31 86 0.0 0.0 0.00 0.00 0.00 1 1012.9
20260506181841 31 89 0.0 0.0 0.00 0.00 0.00 1 1012.9
20260506181343 30 115 0.0 0.0 0.00 0.00 0.00 1 1013.0
20260506180841 31 117 0.0 0.0 0.00 0.00 0.00 1 1013.0
20260506180613 30 114 0.0 0.0 0.00 0.00 0.00 1 1013.1
20260506180113 30 109 0.0 0.0 0.00 0.00 0.00 1 1013.1
20260506175342 31 115 0.0 0.0 0.00 0.00 0.00 1 1013.1
20260506174840 31 113 0.0 0.0 0.00 0.00 0.00 1 1013.2
20260506174340 31 97 0.0 0.0 0.00 0.00 0.00 1 1013.2
20260506173840 31 110 0.0 0.0 0.00 0.00 0.00 1 1013.1
20260506173341 30 101 0.0 0.0 0.00 0.00 0.00 1 1013.2
20260506172840 31 118 0.0 0.0 0.00 0.00 0.00 1 1013.2
20260506172341 31 109 0.0 0.0 0.00 0.00 0.00 1 1013.4
20260506171833 31 117 0.0 0.0 0.00 0.00 0.00 1 1013.4
20260506171335 31 96 0.0 0.0 0.00 0.00 0.00 1 1013.5
20260506170834 30 104 0.0 0.0 0.00 0.00 0.00 1 1013.5
20260506170606 30 63 0.0 0.0 0.00 0.00 0.00 1 1013.6
20260506165834 30 110 0.0 0.0 0.00 0.00 0.00 1 1013.6
20260506165606 30 91 0.0 0.0 0.00 0.00 0.00 1 1013.7
20260506164833 30 90 0.0 0.0 0.00 0.00 0.00 1 1013.7
20260506164334 30 105 0.0 0.0 0.00 0.00 0.00 1 1013.7
20260506163834 30 102 0.0 0.0 0.00 0.00 0.00 1 1013.8
20260506163335 30 103 0.0 0.0 0.00 0.00 0.00 1 1013.8
20260506162829 30 115 0.0 0.0 0.00 0.00 0.00 1 1013.7
20260506162331 30 110 0.0 0.0 0.00 0.00 0.00 1 1013.8
20260506162104 30 107 0.0 0.0 0.00 0.00 0.00 1 1013.8
20260506161330 30 115 0.0 0.0 0.00 0.00 0.00 1 1013.9
20260506160830 30 101 0.0 0.0 0.00 0.00 0.00 1 1013.9
20260506160329 30 105 0.0 0.0 0.00 0.00 0.00 1 1014.0
20260506155831 30 110 0.0 0.0 0.00 0.00 0.00 1 1014.0
20260506155329 30 96 0.0 0.0 0.00 0.00 0.00 1 1014.0
20260506154831 30 78 0.0 0.0 0.00 0.00 0.00 1 1014.0
20260506154331 30 113 0.0 0.0 0.00 0.00 0.00 1 1013.9
20260506153829 30 120 0.0 0.0 0.00 0.00 0.00 1 1014.0
20260506153328 30 101 0.0 0.0 0.00 0.00 0.00 1 1014.1
20260506152828 30 74 0.0 0.0 0.00 0.00 0.00 1 1014.0
20260506152329 30 89 0.0 0.0 0.00 0.00 0.00 1 1013.9
20260506151827 30 101 0.0 0.0 0.00 0.00 0.00 1 1013.9
20260506151324 30 58 0.0 0.0 0.00 0.00 0.00 1 1013.9
20260506150825 30 105 0.0 0.0 0.00 0.00 0.00 1 1013.9
20260506150322 30 105 0.0 0.0 0.00 0.00 0.00 1 1013.8
20260506145822 30 112 0.0 0.0 0.00 0.00 0.00 1 1013.8
20260506145321 29 100 0.0 0.0 0.00 0.00 0.00 1 1013.8
20260506144819 29 119 0.0 0.0 0.00 0.00 0.00 1 1013.8
20260506144317 30 96 0.0 0.0 0.00 0.00 0.00 1 1013.8
20260506143816 30 110 0.0 0.0 0.00 0.00 0.00 1 1013.7
20260506143311 30 112 0.0 0.0 0.00 0.00 0.00 1 1013.7
20260506142805 30 107 0.0 0.0 0.00 0.00 0.00 1 1013.6
20260506142529 30 114 0.0 0.0 0.00 0.00 0.00 1 1013.6
20260506141751 30 83 0.0 0.0 0.00 0.00 0.00 1 1013.5
20260506141245 30 99 0.0 0.0 0.00 0.00 0.00 1 1013.4
20260506141010 30 103 0.0 0.0 0.00 0.00 0.00 1 1013.4
20260506140234 30 84 0.0 0.0 0.00 0.00 0.00 1 1013.3
20260506135727 29 118 0.0 0.0 0.00 0.00 0.00 1 1013.2
20260506135222 29 108 0.0 0.0 0.00 0.00 0.00 1 1013.2
20260506134948 29 81 0.0 0.0 0.00 0.00 0.00 1 1013.1
20260506134208 29 93 0.0 0.0 0.00 0.00 0.00 1 1013.1
20260506133704 29 103 0.0 0.0 0.00 0.00 0.00 1 1013.2
20260506133429 29 79 0.0 0.0 0.00 0.00 0.00 1 1013.2
20260506132652 29 103 0.0 0.0 0.00 0.00 0.00 1 1013.2
20260506132418 29 117 0.0 0.0 0.00 0.00 0.00 1 1013.2
20260506131640 29 94 0.0 0.0 0.00 0.00 0.00 1 1013.1
20260506131134 28 104 0.0 0.0 0.00 0.00 0.00 1 1013.1
20260506130629 28 120 0.0 0.0 0.00 0.00 0.00 1 1013.1
20260506130122 28 122 0.0 0.0 0.00 0.00 0.00 1 1013.1
20260506125619 28 101 0.0 0.0 0.00 0.00 0.00 1 1013.0
20260506125121 28 90 0.0 0.0 0.00 0.00 0.00 1 1012.9
20260506124852 28 119 0.0 0.0 0.00 0.00 0.00 1 1012.8
20260506124122 28 97 0.0 0.0 0.00 0.00 0.00 1 1012.8
20260506123617 28 82 0.0 0.0 0.00 0.00 0.00 1 1012.8
20260506123347 28 105 0.0 0.0 0.00 0.00 0.00 1 1012.7